CDT,Max TemperatureF,Mean TemperatureF,Min TemperatureF,Max Dew PointF,MeanDew PointF,Min DewpointF,Max Humidity, Mean Humidity, Min Humidity, Max Sea Level PressureIn, Mean Sea Level PressureIn, Min Sea Level PressureIn, Max VisibilityMiles, Mean VisibilityMiles, Min VisibilityMiles, Max Wind SpeedMPH, Mean Wind SpeedMPH, Max Gust SpeedMPH,PrecipitationIn, CloudCover, Events, WindDirDegrees
2012-9-1,75,71,67,70,66,55,90,78,66,29.94,29.91,29.89,10,10,8,23,13,31,0.02,6,Rain,42
2012-9-2,86,75,63,70,63,55,93,77,61,29.95,29.91,29.87,10,10,7,13,5,15,0.00,5,,22
2012-9-3,91,77,62,71,66,62,100,75,50,29.95,29.91,29.83,10,5,0,13,3,16,T,0,Fog,87
2012-9-4,94,81,68,71,69,65,97,68,39,29.88,29.83,29.77,10,9,3,9,4,15,0.01,0,Rain,191
2012-9-5,89,76,63,68,63,59,93,69,44,29.90,29.82,29.75,10,10,5,36,10,46,0.16,2,Rain-Thunderstorm,297
2012-9-6,85,70,55,58,52,47,86,58,29,30.00,29.92,29.84,10,10,10,13,6,15,0.00,0,,50
2012-9-7,74,63,52,64,57,47,90,79,68,30.01,29.87,29.76,10,10,10,23,11,31,0.02,4,Rain-Thunderstorm,8
2012-9-8,77,62,46,47,44,42,86,59,31,30.07,29.99,29.88,10,10,8,24,10,31,0.00,0,,292
2012-9-9,75,62,48,50,47,43,86,62,38,30.17,30.12,29.99,10,10,10,16,7,21,0.00,0,,351
2012-9-10,81,64,46,50,47,45,93,62,30,30.19,30.11,30.02,10,10,10,18,8,25,0.00,0,,175
2012-9-11,91,74,57,56,52,48,80,52,24,30.04,30.00,29.94,10,10,10,21,11,28,0.00,0,Rain,181
2012-9-12,90,75,59,59,53,41,78,54,29,30.14,30.04,30.00,10,10,10,21,10,26,T,1,Rain,188
2012-9-13,61,53,45,52,49,44,100,78,55,30.39,30.32,30.16,10,8,0,28,9,36,0.29,6,Fog-Rain,9
2012-9-14,74,59,43,51,45,40,100,66,31,30.40,30.36,30.31,10,4,0,10,3,16,0.00,0,Fog,253
2012-9-15,78,61,43,50,45,41,93,61,28,30.31,30.23,30.13,10,10,10,14,6,18,0.00,0,,187
2012-9-16,76,60,43,57,51,42,93,72,50,30.12,30.04,29.96,10,10,8,12,5,18,0.00,0,,206
2012-9-17,76,60,44,63,55,42,100,79,58,29.96,29.91,29.86,10,7,0,28,7,32,0.28,5,Fog-Rain-Thunderstorm,304
2012-9-18,65,53,41,43,38,33,89,60,31,30.06,30.02,29.96,10,10,10,20,8,26,0.00,0,,293
2012-9-19,81,63,45,54,43,35,70,50,30,30.02,29.89,29.76,10,10,10,24,12,35,0.00,1,Thunderstorm,210
2012-9-20,72,59,45,39,34,28,71,46,20,29.99,29.96,29.92,10,10,10,23,8,29,0.00,0,,279
2012-9-21,74,60,46,46,43,40,86,60,33,29.94,29.84,29.74,10,10,10,18,7,25,0.00,2,,104
2012-9-22,62,49,35,42,34,26,89,63,36,30.27,30.12,29.86,10,10,10,24,11,30,0.00,0,,320
2012-9-23,65,48,30,36,30,26,96,60,24,30.35,30.29,30.25,10,10,10,20,6,24,0.00,0,,292
2012-9-24,75,54,33,47,35,28,82,52,22,30.25,30.05,29.86,10,10,10,16,8,22,0.00,0,,180
2012-9-25,83,69,54,54,50,46,77,56,34,29.89,29.83,29.78,10,10,8,10,4,14,0.00,0,,93
2012-9-26,76,63,50,46,39,33,68,45,21,30.13,30.01,29.88,10,10,10,14,7,17,0.00,0,,39
2012-9-27,73,58,42,44,39,36,92,60,27,30.22,30.17,30.13,10,10,6,13,7,21,0.00,0,,81
2012-9-28,73,54,34,45,38,35,86,58,29,30.24,30.17,30.13,10,10,9,13,3,17,0.00,0,,71
2012-9-29,82,62,42,44,40,37,83,52,21,30.17,30.08,29.99,10,7,2,13,5,16,0.00,0,,287
2012-9-30,80,63,45,44,41,40,77,51,25,29.99,29.93,29.87,10,10,10,13,6,16,0.00,0,,28